CZ-4 DEB, 35319

Orbit data source: Space-Track

CZ-4 DEB, 35319 is space debris in SSO originally from a launch on Thu, 14 Oct 1999 UTC launched from the Taiyaun Space Center, China (TSC). Debris objects in space refer to the collection of defunct objects orbiting the Earth. Examples of debris include non-operational satellites, rocket bodies, and fragments generated from explosions, collisions, or faulty payload assembly.

Loading next visibility...
Identifier
35319, 1999-057RX
Orbit
SSO
Country
Flag of CNCN / PRC
Related business
Manufacturer
Unknown
Mission
Spacecraft
Bus & Motor
Unknown
Mass
Unknown
Launch date (UTC)
1999-10-14 (26 years ago)
Launch vehicle
Unknown
Launch site
Taiyaun Space Center, China (TSC)
Object type
Payload
Rocket body
Debris
Shape & HBR
Unknown shape, 0.1 m
Radar Cross Section
Small (<0.1 m²)

Expand to show TLE details & history
Last TLE update: 16 hours ago

TLE from 16 hours ago
0 CZ-4 DEB
1 35319U 99057RX  25288.73131317  .00001143  00000-0  53405-3 0  9991
2 35319  98.6771  13.0990 0189714 322.2839 189.9632 14.13242480230464
Epoch: 2025-10-15T17:33Z
TLE epoch observation values (Epoch: 2025-10-15T17:33:05.457Z)
Latitude
27.81133°
Longitude
-90.08141°
Altitude
986.83 km
Speed
7.292 km/s
True Right ascension
13h 10m 46s
True Declination
27° 40' 27"
Sunlit
Object was in daylight at epoch
Visualization orbit readout
Latitude
Unknown
Longitude
Unknown
Altitude
Unknown
Speed
Unknown
Apparent Right ascension
Unknown
Apparent Declination
Unknown
Sunlit
N/A
Visualization observer readout
Local Sidereal Time
03:51:24
Azimuth
Unknown
Elevation
Unknown
Doppler factor
Unknown
Orbital elements
Apogee altitude
982.504 km
Perigee altitude
708.42 km
Semi-major axis
7,223.599 km
Eccentricity
0.01897
Inclination
98.6771°
RAAN
13.099°
Arg. of periapsis
322.2839°
True anomaly
189.59567°
Mean anomaly
189.9632°
Eccentric anomaly
189.77859°
Mean motion
3.53519 °/min
Orbital period
101.83 mins
BSTAR
0.00053405
Loading maneuver chart data...
Computing Atmospheric mass density...

Documentation

Showing up to 5 results
|